EW8735 Weather Reports


Display with metric or nautical units.
time (UTC)temp
F
wind
direction
speed
MPH
gust
MPH
rain 1hr
in
rain 24hr
in
rain mn
in
humidity
%
barometer
mb
20260503013006 78 341 0.0 0.0 0.00 0.00 0.00 43 1007.2
20260503011506 78 359 0.0 0.0 0.00 0.00 0.00 43 1007.2
20260503010004 78 340 0.0 0.0 0.00 0.00 0.00 43 1007.3
20260503004502 78 359 0.0 0.0 0.00 0.00 0.00 44 1007.4
20260503003002 78 337 0.0 0.0 0.00 0.00 0.00 42 1007.5
20260503001502 78 336 0.0 0.0 0.00 0.00 0.00 42 1007.5
20260503000002 78 335 0.0 0.0 0.00 0.00 0.00 41 1007.5
20260502234558 78 335 0.0 0.0 0.00 0.00 0.00 37 1007.7
20260502233057 78 359 0.0 0.0 0.00 0.00 0.00 40 1007.9
20260502231605 78 359 0.0 0.0 0.00 0.00 0.00 43 1007.9
20260502230055 78 335 0.0 0.0 0.00 0.00 0.00 40 1008.0
20260502224553 79 335 0.0 0.0 0.00 0.00 0.00 37 1008.2
20260502223051 79 339 0.0 0.0 0.00 0.00 0.00 40 1008.3
20260502221549 79 338 0.0 0.0 0.00 0.00 0.00 40 1008.6
20260502220049 79 337 0.0 0.0 0.00 0.00 0.00 39 1008.6
20260502214553 79 359 0.0 0.0 0.00 0.00 0.00 39 1008.8
20260502213046 78 338 0.0 0.0 0.00 0.00 0.00 40 1009.0
20260502211547 78 338 0.0 0.0 0.00 0.00 0.00 39 1009.1
20260502210039 76 359 0.0 0.0 0.00 0.00 0.00 46 1009.2
20260502204536 75 332 0.0 0.0 0.00 0.00 0.00 48 1009.4
20260502203046 75 332 0.0 0.0 0.00 0.00 0.00 46 1009.6
20260502201534 75 332 0.0 0.0 0.00 0.00 0.00 43 1009.7
20260502200031 74 359 0.0 0.0 0.00 0.00 0.00 46 1009.7
20260502194530 73 359 0.0 0.0 0.00 0.00 0.00 45 1010.0
20260502193029 74 332 0.0 0.0 0.00 0.00 0.00 45 1010.1
20260502191527 74 332 0.0 0.0 0.00 0.00 0.00 42 1010.1
20260502190024 73 333 0.0 0.0 0.00 0.00 0.00 45 1010.1
20260502184526 72 340 0.0 0.0 0.00 0.00 0.00 45 1010.2
20260502183022 72 359 0.0 0.0 0.00 0.00 0.00 44 1010.1
20260502181521 72 312 0.0 0.0 0.00 0.00 0.00 44 1010.1
20260502163010 66 311 0.0 0.0 0.00 0.00 0.00 50 1010.1
20260502161506 66 311 0.0 0.0 0.00 0.00 0.00 51 1010.1
20260502151506 60 325 0.0 0.0 0.00 0.00 0.00 56 1010.0
20260502123048 55 122 0.0 0.0 0.00 0.00 0.00 54 1009.3
20260502121545 56 121 0.0 0.0 0.00 0.00 0.00 52 1009.2
20260502114539 59 122 0.0 0.0 0.00 0.00 0.00 48 1009.3
20260502113034 66 122 0.0 0.0 0.00 0.00 0.00 39 1009.1
20260502111533 70 122 0.0 0.0 0.00 0.00 0.00 29 1009.2
20260502110029 69 86 0.0 0.0 0.00 0.00 0.00 29 1009.1
20260502104527 69 81 0.0 0.0 0.00 0.00 0.00 31 1009.4
20260502103027 68 81 0.0 0.0 0.00 0.00 0.00 31 1009.3
20260502101534 66 82 0.0 0.0 0.00 0.00 0.00 34 1009.2
20260502091523 68 81 0.0 0.0 0.00 0.00 0.00 33 1009.3
20260502071509 67 105 0.0 0.0 0.00 0.00 0.00 34 1009.4
20260502070006 69 104 0.0 0.0 0.00 0.00 0.00 34 1009.5
20260502064515 70 104 0.0 0.0 0.00 0.00 0.00 32 1009.4
20260502063005 69 95 0.0 0.0 0.00 0.00 0.00 32 1009.4
20260502061504 69 87 0.0 0.0 0.00 0.00 0.00 33 1009.4
20260502060004 67 68 0.0 0.0 0.00 0.00 0.00 35 1009.6
20260502054502 63 48 0.0 0.0 0.00 0.00 0.00 40 1009.6
20260502053003 64 48 0.0 0.0 0.00 0.00 0.00 42 1009.7
20260502051502 65 48 0.0 0.0 0.00 0.00 0.00 41 1009.7
20260502050002 67 48 0.0 0.0 0.00 0.00 0.00 38 1009.7
20260502044504 68 48 0.0 0.0 0.00 0.00 0.00 37 1009.7
20260502043001 70 48 0.0 0.0 0.00 0.00 0.00 35 1009.8
20260502041601 69 47 0.0 0.0 0.00 0.00 0.00 33 1009.8
20260502040108 69 47 0.0 0.0 0.00 0.00 0.00 37 1009.9
20260502034600 69 46 0.0 0.0 0.00 0.00 0.00 39 1009.8
20260502033100 68 47 0.0 0.0 0.00 0.00 0.00 40 1009.9
20260502031633 69 47 0.0 0.0 0.00 0.00 0.00 39 1009.8
20260502030101 69 47 0.0 0.0 0.00 0.00 0.00 41 1009.7
20260502024558 70 47 0.0 0.0 0.00 0.00 0.00 40 1009.7
20260502023059 70 47 0.0 0.0 0.00 0.00 0.00 41 1009.6
20260502021557 69 47 0.0 0.0 0.00 0.00 0.00 42 1009.5
20260502020112 71 47 0.0 0.0 0.00 0.00 0.00 43 1009.6
20260502014556 71 47 0.0 0.0 0.00 0.00 0.00 42 1009.6